Covington, KY

6:36 PM EDT on September 21, 2017 (GMT -0400)
Cincinnati-Northern KY International

Weather History for KCVG - December, 2010

Change the Weather History Date:

Thursday, December 2, 2010

  Actual Average Record
Temperature  
Mean Temperature 30 °F 38 °F  
Max Temperature 35 °F 46 °F 75 °F (1982)
Min Temperature 25 °F 30 °F 2 °F (1886)
Degree Days  
Heating Degree Days 35 27  
Month to date heating degree days 70 53  
Since 1 July heating degree days 940 1013  
Cooling Degree Days 0 0  
Month to date cooling degree days 0 0  
Year to date cooling degree days 1481 1121  
Moisture  
Dew Point 23 °F    
Average Humidity 77    
Maximum Humidity 92    
Minimum Humidity 61    
Precipitation  
Precipitation T in 0.10 in 2.46 in (1991)
Month to date precipitation 0.06 0.21  
Year to date precipitation 34.96 39.36  
Snow  
Snow T in 0.10 in 2.20 in (1929)
Month to date snowfall 0.6 0.2  
Since 1 July snowfall 0.8 1.0  
Snow Depth T in    
Sea Level Pressure  
Sea Level Pressure 30.20 in    
Wind  
Wind Speed 8 mph (SW)    
Max Wind Speed 18 mph    
Max Gust Speed 23 mph    
Visibility 9 miles    
Events Snow    
T = Trace of Precipitation, MM = Missing Value Source: NWS Daily Summary

Daily Weather History Graph

Daily Weather History Graph

Search for Another Location

Airport or City:

Trip Planner

Search our weather history database for the weather conditions in past years. The results will help you decide how hot, cold, wet, or windy it might be!

Date:

Astronomy

Dec. 02, 2010 Rise Set
Actual Time 7:39 AM EST 5:16 PM EST
Civil Twilight 7:10 AM EST 5:45 PM EST
Nautical Twilight 6:36 AM EST 6:19 PM EST
Astronomical Twilight 6:04 AM EST 6:51 PM EST
Moon 4:16 AM EST (12/2) 2:51 PM EST (12/2)
Length of Visible Light 10h 35m
Length of Day
9h 36m
Waning Crescent, 11% of the Moon is Illuminated
Dec 2
Waning Crescent
Dec 5
New
Dec 13
First Quarter
Dec 21
Full
Dec 27
Last Quarter

Hourly Weather History & Observations

Time (EST) Temp. Windchill Dew Point Humidity Pressure Visibility Wind Dir Wind Speed Gust Speed Precip Events Conditions
12:52 AM 30.0 °F 18.7 °F 21.0 °F 69% 30.15 in 10.0 mi West 16.1 mph - N/A   Overcast
1:52 AM 28.9 °F 20.4 °F 21.0 °F 72% 30.15 in 10.0 mi West 9.2 mph - N/A   Overcast
2:52 AM 28.9 °F 21.9 °F 21.0 °F 72% 30.17 in 10.0 mi West 6.9 mph - N/A   Overcast
3:52 AM 30.0 °F 22.4 °F 21.0 °F 69% 30.17 in 10.0 mi WSW 8.1 mph 17.3 mph N/A   Overcast
4:52 AM 28.9 °F 19.8 °F 19.9 °F 69% 30.18 in 10.0 mi West 10.4 mph - N/A   Overcast
5:52 AM 28.9 °F 22.8 °F 21.9 °F 75% 30.19 in 10.0 mi SW 5.8 mph - N/A   Overcast
6:39 AM 26.6 °F 19.1 °F 21.2 °F 80% 30.19 in 10.0 mi SW 6.9 mph - N/A   Scattered Clouds
6:52 AM 27.0 °F 19.5 °F 21.0 °F 78% 30.22 in 9.0 mi WSW 6.9 mph - N/A   Mostly Cloudy
7:52 AM 26.1 °F 19.4 °F 19.9 °F 78% 30.23 in 8.0 mi SW 5.8 mph - N/A   Mostly Cloudy
8:52 AM 27.0 °F 21.6 °F 21.0 °F 78% 30.23 in 8.0 mi WSW 4.6 mph - N/A   Overcast
9:52 AM 28.9 °F 21.1 °F 21.0 °F 72% 30.24 in 10.0 mi WSW 8.1 mph - N/A   Overcast
10:52 AM 30.0 °F 22.4 °F 21.9 °F 72% 30.23 in 10.0 mi WSW 8.1 mph - N/A   Overcast
11:52 AM 32.0 °F 24.2 °F 21.9 °F 66% 30.22 in 10.0 mi WSW 9.2 mph 17.3 mph N/A   Overcast
12:52 PM 33.1 °F 24.9 °F 21.9 °F 64% 30.20 in 10.0 mi SW 10.4 mph - N/A   Overcast
1:52 PM 34.0 °F 26.6 °F 21.9 °F 61% 30.18 in 10.0 mi SW 9.2 mph - N/A   Overcast
2:52 PM 34.0 °F 27.2 °F 21.9 °F 61% 30.18 in 10.0 mi WSW 8.1 mph - N/A   Overcast
3:52 PM 34.0 °F 26.6 °F 23.0 °F 64% 30.19 in 10.0 mi SW 9.2 mph - N/A   Overcast
4:52 PM 34.0 °F 28.0 °F 24.1 °F 67% 30.20 in 10.0 mi SW 6.9 mph - N/A   Overcast
5:52 PM 32.0 °F 26.4 °F 25.0 °F 75% 30.21 in 10.0 mi SSW 5.8 mph - N/A   Overcast
6:52 PM 32.0 °F 24.8 °F 26.1 °F 79% 30.21 in 8.0 mi SW 8.1 mph - 0.00 in Snow Light Snow
7:52 PM 30.9 °F 26.2 °F 27.0 °F 85% 30.20 in 10.0 mi SW 4.6 mph - 0.00 in Snow Light Snow
8:52 PM 30.9 °F 26.2 °F 27.0 °F 85% 30.20 in 8.0 mi SSW 4.6 mph - 0.00 in   Overcast
9:38 PM 30.2 °F 25.4 °F 28.4 °F 93% 30.19 in 8.0 mi SW 4.6 mph - N/A   Overcast
9:52 PM 30.9 °F 25.2 °F 28.0 °F 89% 30.21 in 8.0 mi SSW 5.8 mph - 0.00 in Snow Light Snow
10:25 PM 32.0 °F 27.5 °F 28.4 °F 87% 30.18 in 6.0 mi SW 4.6 mph - 0.00 in Snow Light Snow
10:52 PM 30.9 °F 26.2 °F 28.0 °F 89% 30.20 in 3.0 mi WSW 4.6 mph - 0.00 in Snow Light Snow
11:52 PM 30.9 °F 26.2 °F 28.9 °F 92% 30.19 in 5.0 mi WSW 4.6 mph - 0.00 in   Overcast